Location: Asheville, NC
(35.6000°N, 82.5500°W)
Time: 16:45:28
(UTC-05:00)

Vanguard 1 Rocket - Pass Details

Date: 16 February 2018
Orbit: 655 x 4222 km, 34.3° (Epoch: 17 February)

Event Time Altitude Azimuth Distance (km) Brightness Sun altitude
Rises 00:22:52 0° 241° (WSW) 7,130 11.9 -66.2°
Enters shadow 00:25:37 - 240° (WSW) 6,679 11.7 -66.4°
Reaches altitude 10° 00:27:02 10° 240° (WSW) 6,455 - -66.4°
Maximum altitude 00:50:48 76° 159° (SSE) 4,300 - -66.7°
Exits shadow 01:05:06 37° 84° (E) 5,205 11.0 -66.3°
Drops below altitude 10° 01:15:01 10° 80° (E) 6,559 11.8 -65.7°
Sets 01:19:16 0° 79° (ENE) 7,244 12.2 -65.4°
